Regional Weather Roundup
Issued by NWS

Home | Current Version | Previous Version | Text Only | Print | Product List | Glossary On
Versions: 1 2 3 4 5 6 7 8 9 10 11 12 13 14 15 16 17 18 19 20 21 22 23 24 25 26 27 28 29 30 31 32 33 34 35 36 37 38 39 40 41 42 43 44 45 46 47 48 49 50
000
ASUS43 KTOP 201408
RWRKS

WEATHER ROUNDUP FOR KANSAS
NATIONAL WEATHER SERVICE GOODLAND KS
800 AM CST SAT JAN 20 2018

NOTE:  "FAIR" INDICATES FEW OR NO CLOUDS BELOW 12,000 FEET WITH NO
SIGNIFICANT WEATHER AND/OR OBSTRUCTIONS TO VISIBILITY.

KSZ001>006-013>018-027>032-041>047-201500-
NORTHWEST KANSAS

CITY           SKY/WX    TMP DP  RH WIND       PRES   REMARKS
GOODLAND       PTCLDY    22  20  92 NW5       29.74R
HAYS           CLOUDY    21  15  78 CALM      29.73F
HILL CITY      CLOUDY    21  19  92 N7        29.74R
RUSSELL        CLOUDY    31  29  92 S12       29.72F WCI  22
$$

KSZ061>065-074>080-084>089-201500-
SOUTHWEST KANSAS

CITY           SKY/WX    TMP DP  RH WIND       PRES   REMARKS
DODGE CITY     CLOUDY    28  14  55 W8        29.73R
ELKHART        CLEAR     47  22  36 NW6       29.74S
GARDEN CITY    CLOUDY   N/A N/A N/A NW9       29.74R
GREAT BEND     CLOUDY    23  20  88 S3        29.75S
LIBERAL        CLOUDY    27  14  58 NW6       29.74
PRATT          FOG       37  36  96 S10       29.77R VSB 1/4 WCI  29
$$

KSZ066>073-081>083-090>101-201500-
SOUTHEAST KANSAS

CITY           SKY/WX    TMP DP  RH WIND       PRES   REMARKS
CHANUTE        CLOUDY    47  43  86 S12       29.90R
COFFEYVILLE    CLOUDY    50  45  83 S10       29.91R
HUTCHINSON     CLOUDY    47  45  93 S13       29.79R
MEDICINE LODGE   N/A     37  37 100 SE7       29.78R
NEWTON         CLOUDY    47  44  90 S18       29.81R
PARSONS        CLOUDY    49  45  86 S7        29.91S
WICHITA INTL   CLOUDY    49  46  90 S16       29.81R
WICHITA JABRA  CLOUDY    48  46  93 S16       29.82R
WICHITA MCCONL CLOUDY    48  44  86 S14       29.82R
WINFIELD       CLOUDY    49  46  90 S10       29.86R
$$

KSZ007>012-019>026-033>040-048>060-102>105-201500-
NORTHEAST KANSAS

CITY           SKY/WX    TMP DP  RH WIND       PRES   REMARKS
CONCORDIA      CLOUDY    30  30 100 CALM      29.78S FOG
EMPORIA        CLOUDY    45  42  89 S10       29.85R
LAWRENCE       CLOUDY    43  41  93 E5        29.88R
MANHATTAN      CLOUDY    48  43  82 S6        29.82R
MARYSVILLE     CLOUDY    37  36  93 S5        29.82S
OLATHE IND     CLOUDY    45  43  93 S8        29.89S
OLATHE EXE     CLOUDY    45  42  89 S6        29.89R
SALINA         CLEAR     39  38  96 S9        29.79R
TOPEKA BILLARD CLOUDY    44  42  93 SE3       29.86S
TOPEKA FORBES  CLOUDY    45  42  89 S8        29.85S
$$



USA.gov is the U.S. government's official web portal to all federal, state and local government web resources and services.